This demonstration page uses our WeatherBlox Daily Observations layout. Learn more.

Left ArrowRight Arrow

Hourly Observations for May 7, 2017

Temp ( °F °C ) Dew Point ( °F °C ) Humidity (%) Winds ( mph kmh ) Pressure ( in mb ) Visibility ( mi km ) Precip ( " mm )
12:15 am 00:15 Clear 60 15.5 45 7.1 58 58 SSE 9 15 29.85 1011 10 16 N/A
12:35 am 00:35 Clear 60 15.7 45 7 56 56 S 9 15 29.85 1011 10 16 N/A
12:55 am 00:55 Clear 61 16 45 7.1 56 56 SSE 8 13 29.85 1011 10 16 N/A
1:15 am 01:15 Clear 57 13.7 45 7.2 65 65 SE 9 15 29.88 1012 10 16 N/A
1:35 am 01:35 Clear 55 12.6 45 7 69 69 SSE 9 15 29.88 1012 10 16 N/A
1:55 am 01:55 Clear 55 12.5 45 7.2 70 70 SE 9 15 29.85 1011 10 16 N/A
2:15 am 02:15 Clear 55 12.6 45 7.3 70 70 SE 9 15 29.85 1011 10 16 N/A
2:35 am 02:35 Clear 54 12.3 45 7.3 72 72 SSE 6 9 29.85 1011 10 16 N/A
2:55 am 02:55 Clear 54 12.4 46 7.5 72 72 SSE 9 15 29.85 1011 10 16 N/A
3:15 am 03:15 Clear 55 12.7 46 7.6 71 71 SSE 9 15 29.85 1011 10 16 N/A
3:35 am 03:35 Clear 57 14 46 7.8 66 66 S 10 17 29.85 1011 10 16 N/A
3:55 am 03:55 Clear 57 13.7 46 7.9 68 68 SSE 8 13 29.85 1011 10 16 N/A
4:15 am 04:15 Clear 54 12 46 7.8 76 76 SSE 7 11 29.88 1012 10 16 N/A
4:35 am 04:35 Clear 53 11.6 46 7.8 78 78 SSE 8 13 29.91 1013 10 16 N/A
4:55 am 04:55 Clear 53 11.5 46 7.8 78 78 SSE 7 11 29.91 1013 10 16 N/A
5:15 am 05:15 Clear 52 11.2 46 7.7 79 79 SSE 8 13 29.91 1013 10 16 N/A
5:35 am 05:35 Clear 51 10.8 46 7.9 82 82 SSE 9 15 29.88 1012 10 16 N/A
5:55 am 05:55 Clear 52 11.3 47 8.1 81 81 SSE 10 17 29.88 1012 10 16 N/A
6:15 am 06:15 Clear 52 10.9 47 8.1 83 83 SSE 9 15 29.88 1012 10 16 N/A
6:35 am 06:35 Sunny 53 11.4 47 8.4 82 82 SSE 9 15 29.85 1011 10 16 N/A
6:55 am 06:55 Sunny 55 12.7 48 8.8 77 77 SSE 12 19 29.85 1011 10 16 N/A
7:15 am 07:15 Sunny 56 13.5 48 9 74 74 SSE 10 17 29.85 1011 10 16 N/A
7:35 am 07:35 Sunny 57 13.7 48 9.1 74 74 SE 9 15 29.85 1011 10 16 N/A
7:55 am 07:55 Sunny 60 15.3 49 9.5 69 69 SSE 10 17 29.83 1010 10 16 N/A
8:15 am 08:15 Sunny 62 16.9 49 9.3 61 61 SSE 15 24 29.83 1010 10 16 N/A
8:35 am 08:35 Sunny 65 18.1 48 8.9 55 55 SSE 17 28 29.83 1010 10 16 N/A
8:55 am 08:55 Sunny 67 19.3 48 8.7 50 50 S 17 28 29.80 1009 10 16 N/A
9:15 am 09:15 Sunny 68 20.1 48 8.7 48 48 SSE 20 31 29.77 1008 10 16 N/A
9:35 am 09:35 Sunny 69 20.5 48 8.7 47 47 S 17 28 29.80 1009 10 16 N/A
9:55 am 09:55 Sunny 71 21.6 47 8.6 43 43 SSE 17 28 29.80 1009 10 16 N/A
10:15 am 10:15 Sunny 73 22.7 47 8.1 39 39 SSE 18 30 29.74 1007 10 16 N/A
10:35 am 10:35 Sunny 74 23.6 47 8.1 37 37 S 18 30 29.74 1007 10 16 N/A
10:55 am 10:55 Sunny 76 24.2 47 8.1 36 36 S 21 33 29.74 1007 10 16 N/A
11:15 am 11:15 Sunny 76 24.7 47 8.4 35 35 S 20 31 29.74 1007 10 16 N/A
11:35 am 11:35 Sunny 78 25.4 47 8.6 34 34 SSE 25 41 29.71 1006 10 16 N/A
11:55 am 11:55 Sunny 78 25.5 47 8.6 34 34 SSE 23 37 29.68 1005 10 16 N/A
12:15 pm 12:15 Sunny 78 25.8 47 8.5 33 33 S 26 43 29.68 1005 10 16 N/A
12:35 pm 12:35 Sunny 80 26.4 48 8.8 33 33 S 28 44 29.68 1005 10 16 N/A
12:55 pm 12:55 Sunny 80 26.9 48 8.8 32 32 SSE 23 37 29.68 1005 10 16 N/A
1:15 pm 13:15 Sunny 81 27.1 47 8.5 31 31 S 26 43 29.65 1004 10 16 N/A
1:35 pm 13:35 Sunny 82 27.6 47 8.5 30 30 S 25 41 29.65 1004 10 16 N/A
1:55 pm 13:55 Sunny 82 27.6 49 9.3 32 32 SSE 26 43 29.65 1004 10 16 N/A
2:15 pm 14:15 Sunny 82 28 50 9.8 32 32 SSE 26 43 29.65 1004 10 16 N/A
2:35 pm 14:35 Sunny 83 28.6 49 9.5 30 30 S 20 31 29.62 1003 10 16 N/A
2:55 pm 14:55 Sunny 84 29 48 9 29 29 S 21 33 29.62 1003 10 16 N/A
3:15 pm 15:15 Sunny 83 28.6 49 9.3 30 30 S 21 33 29.62 1003 10 16 N/A
3:35 pm 15:35 Sunny 84 29.1 51 10.4 31 31 S 24 39 29.62 1003 10 16 N/A
3:55 pm 15:55 Sunny 85 29.5 50 9.9 30 30 S 22 35 29.62 1003 10 16 N/A
4:15 pm 16:15 Sunny 85 29.4 49 9.6 29 29 S 22 35 29.62 1003 10 16 N/A
4:35 pm 16:35 Sunny 84 29 50 10 31 31 SSE 18 30 29.62 1003 10 16 N/A
4:55 pm 16:55 Sunny 85 29.6 50 9.9 29 29 S 23 37 29.59 1002 10 16 N/A
5:15 pm 17:15 Sunny 86 30.1 47 8.2 25 25 S 23 37 29.59 1002 10 16 N/A
5:35 pm 17:35 Sunny with Nearby Thunderstorms 86 30 48 9 27 27 S 21 33 29.59 1002 10 16 N/A
5:55 pm 17:55 Sunny 85 29.7 49 9.6 29 29 S 22 35 29.59 1002 10 16 N/A
6:15 pm 18:15 Sunny 85 29.3 50 9.9 30 30 S 21 33 29.59 1002 10 16 N/A
6:35 pm 18:35 Sunny 84 28.8 50 9.9 31 31 S 24 39 29.59 1002 10 16 N/A
6:55 pm 18:55 Sunny 82 28 49 9.6 32 32 S 18 30 29.62 1003 10 16 N/A
7:15 pm 19:15 Sunny 82 27.5 50 9.8 33 33 S 22 35 29.59 1002 10 16 N/A
7:35 pm 19:35 Sunny 81 27.3 50 10.2 34 34 S 17 28 29.59 1002 10 16 N/A
7:55 pm 19:55 Sunny 80 26.6 51 10.5 36 36 S 17 28 29.62 1003 10 16 N/A
8:15 pm 20:15 Sunny 79 25.9 51 10.4 38 38 S 17 28 29.62 1003 10 16 N/A
8:35 pm 20:35 Sunny 78 25.4 50 9.8 37 37 SSE 15 24 29.62 1003 10 16 N/A
8:55 pm 20:55 Clear 76 24.3 51 10.3 41 41 SSE 14 22 29.62 1003 10 16 N/A
9:15 pm 21:15 Clear 75 23.7 51 10.6 44 44 SSE 13 20 29.68 1005 10 16 N/A
9:35 pm 21:35 Clear 74 23.4 52 11 46 46 SSE 13 20 29.68 1005 10 16 N/A
9:55 pm 21:55 Clear 73 23 52 11.3 48 48 S 13 20 29.68 1005 10 16 N/A
10:15 pm 22:15 Clear 72 22.3 53 11.5 51 51 S 10 17 29.68 1005 10 16 N/A
10:35 pm 22:35 Clear 72 22 53 11.5 51 51 S 10 17 29.68 1005 10 16 N/A
10:55 pm 22:55 Clear 70 21.1 53 11.5 54 54 S 12 19 29.68 1005 10 16 N/A
11:15 pm 23:15 Clear 70 21.1 52 11.2 53 53 S 14 22 29.68 1005 10 16 N/A
11:35 pm 23:35 Clear 69 20.4 52 11.1 55 55 S 12 19 29.71 1006 10 16 N/A
11:55 pm 23:55 Clear 68 20.1 52 11.1 56 56 S 13 20 29.71 1006 10 16 N/A

Powered by AerisWeather